Wind_Speed
32 33 35 34 36 37 41 41 44 46 45 48 38 30 34 40 42 35 29 21 19 20 13 10 9 23 33 38 44 51 53 51 57 46 32 27 26 28 26 25 18 21 17 16 20 19 15 17 13
33 35 34 33 32 35 38 39 40 43 45 46 43 30 33 38 40 38 33 29 23 18 16 13 10 9 10 31 46 48 50 49 51 54 32 26 24 26 30 23 19 20 21 21 20 20 19 16 18
34 35 33 33 32 33 34 37 41 41 44 42 43 36 31 33 36 36 33 32 31 26 21 15 15 16 16 13 13 31 50 50 46 49 38 35 33 34 33 29 23 20 21 18 20 21 19 16 22
34 34 32 32 32 29 31 34 38 40 42 41 41 41 29 28 31 35 33 33 32 33 30 27 24 16 15 17 18 14 19 32 37 36 38 32 31 31 33 26 23 19 20 19 18 17 19 20 22
35 35 33 30 30 29 26 30 31 37 41 41 38 38 36 25 25 30 32 30 32 32 30 28 27 26 15 11 15 16 17 18 21 23 29 29 29 33 32 29 29 24 21 18 16 18 18 21 17
36 36 34 28 29 29 27 27 30 32 37 40 38 35 35 31 23 26 27 30 32 33 33 31 27 28 22 13 8 12 20 18 20 17 22 26 24 25 28 29 26 25 23 19 19 18 18 18 22
37 37 35 32 30 28 29 26 28 31 33 35 38 35 32 32 26 20 22 27 28 29 32 33 33 31 27 22 10 10 15 15 13 18 20 21 21 24 30 28 30 26 21 21 22 21 20 23 26
38 38 39 37 34 30 29 30 26 28 29 32 35 31 30 30 27 23 15 19 23 26 28 29 32 35 28 26 20 11 14 12 16 17 16 17 16 20 24 24 23 23 23 24 23 22 24 26 24
37 39 39 40 36 32 31 30 30 29 29 30 32 32 27 26 28 27 17 12 14 18 23 23 28 32 34 30 25 17 19 13 13 16 17 18 17 15 20 21 23 23 25 25 23 24 24 25 24
37 39 40 41 39 34 32 32 29 29 29 29 29 31 25 23 23 26 25 17 11 14 16 19 22 28 31 32 28 21 16 12 13 15 18 20 21 19 20 21 24 25 23 24 24 25 23 20 24
43 41 44 43 42 37 35 32 30 27 28 30 28 28 26 21 19 22 23 21 17 14 12 11 13 18 24 27 27 23 17 13 12 15 16 16 18 19 19 19 21 23 26 22 23 23 23 23 21
49 49 45 43 45 41 38 34 34 27 27 29 29 29 26 20 17 16 18 21 20 19 14 10 9 12 15 19 23 24 19 15 11 12 15 15 15 14 13 17 22 27 26 25 24 24 26 24 22
43 48 46 47 45 47 41 38 35 30 31 29 29 29 25 22 16 13 13 15 18 17 18 14 11 7 8 10 15 19 18 15 12 11 13 14 15 14 14 18 23 26 26 24 25 25 22 22 22
45 43 43 43 47 49 47 43 39 34 33 31 28 28 26 21 17 11 10 10 13 15 15 17 17 10 7 7 8 11 16 13 12 9 11 15 15 14 14 14 20 26 28 25 23 23 21 18 15
42 42 43 44 44 46 47 45 46 38 34 33 30 29 28 22 17 11 9 8 6 9 12 12 14 15 14 7 5 4 7 9 9 10 10 11 13 16 16 17 18 25 30 27 25 25 23 21 18
38 39 43 45 46 47 45 45 51 42 39 34 31 30 29 28 21 14 10 9 7 6 5 10 11 12 11 12 9 5 1 3 5 6 8 7 8 8 11 16 18 23 27 31 32 29 27 24 20
38 38 40 43 41 45 44 42 48 46 43 38 37 33 30 28 28 15 14 12 9 11 10 4 3 7 9 11 14 10 5 4 4 7 8 8 10 6 10 11 15 21 25 28 31 30 29 27 23
42 43 46 43 47 42 45 43 40 48 46 45 41 38 34 28 29 24 18 14 12 12 14 10 6 3 6 5 7 10 10 8 5 10 13 12 11 11 8 10 17 19 24 28 30 30 30 30 26
49 50 51 50 49 50 46 45 44 44 45 47 46 43 39 34 29 31 22 17 15 12 15 16 14 10 6 6 8 10 13 10 8 7 14 17 16 16 13 11 12 20 21 27 32 32 31 31 30
56 58 59 60 56 59 54 46 44 43 49 46 47 48 45 40 34 34 29 21 19 15 14 18 17 15 12 10 9 9 14 12 11 9 8 18 21 21 18 17 13 16 19 23 27 32 35 36 34
59 64 67 69 70 67 59 51 48 48 47 44 43 52 50 46 41 37 31 27 22 18 17 17 20 17 16 13 13 11 8 5 9 8 8 16 19 25 23 21 20 19 18 20 21 26 30 34 37
61 70 73 75 73 66 64 48 53 46 51 47 43 47 54 51 46 41 35 31 25 22 19 19 17 20 18 17 15 14 12 7 11 16 14 11 20 23 25 25 23 21 23 24 22 21 21 27 33
66 73 76 70 67 58 56 49 54 52 51 50 48 47 54 56 51 46 40 35 30 28 23 19 18 22 20 20 19 16 16 14 14 18 20 19 16 24 28 29 27 26 26 27 26 24 26 22 25
70 71 68 62 59 54 49 46 52 58 54 52 51 51 51 58 55 49 44 39 35 32 28 23 23 22 20 21 22 20 20 21 19 17 19 20 18 15 19 30 29 28 28 28 28 28 28 29 27
72 68 56 53 50 46 46 48 44 57 55 55 56 53 49 50 56 53 49 44 41 36 33 29 25 23 23 24 23 22 23 24 28 20 20 17 19 17 17 23 28 34 32 32 27 28 28 29 29
72 64 48 44 36 38 43 39 43 56 62 59 57 54 50 45 48 52 52 48 45 41 38 33 30 27 26 25 24 25 24 25 26 24 19 22 19 16 22 26 33 33 40 39 38 33 32 30 29
72 60 44 37 30 34 39 34 48 54 65 60 56 55 53 48 50 58 57 53 50 45 41 36 35 33 30 26 25 26 25 27 22 19 21 22 18 13 11 17 28 39 38 42 40 40 38 34 31
72 57 44 36 26 27 36 37 46 54 64 60 60 58 56 53 54 51 57 57 51 48 44 39 39 39 32 29 27 27 28 29 23 23 20 24 24 23 30 25 28 28 41 43 46 43 44 40 35
70 52 44 33 24 25 29 33 46 55 59 64 63 60 58 58 58 52 53 56 51 50 48 44 43 42 34 31 31 28 31 29 25 28 25 17 15 23 31 37 38 36 32 44 44 47 46 47 40
67 50 43 31 24 25 22 36 47 54 58 64 62 61 59 60 63 54 53 49 48 49 49 49 46 42 33 30 28 28 33 32 28 24 28 18 22 29 31 30 26 30 34 39 45 45 51 49 45
Wind_Direction
358 1 5 8 11 13 13 21 23 23 23 22 21 29 30 30 37 45 52 52 61 72 97 128 177 218 217 214 216 218 220 223 230 233 212 220 217 204 200 216 236 219 219 227 218 213 222 233 226
350 354 4 9 13 20 17 20 22 22 25 23 24 26 29 32 35 39 39 43 53 69 78 82 79 83 177 220 222 223 220 219 224 230 232 223 220 200 207 217 236 230 224 219 221 217 229 234 220
346 351 358 3 17 24 22 19 25 21 24 24 24 21 21 25 32 40 42 47 47 50 51 60 65 72 77 101 175 215 224 225 225 225 222 202 219 220 222 231 241 228 226 211 211 222 215 225 220
339 343 353 1 9 16 24 22 23 23 23 24 22 24 24 26 34 39 45 50 51 55 55 50 54 62 75 89 97 128 183 210 221 223 224 212 218 220 225 218 228 220 197 197 208 207 221 228 231
334 336 343 354 357 360 22 18 16 17 19 22 21 24 25 25 33 40 44 53 53 55 55 52 50 50 62 85 107 116 129 152 176 194 200 212 219 216 217 218 215 222 212 210 214 221 226 232 219
328 330 333 339 346 349 359 7 8 9 9 17 19 17 24 25 27 43 49 55 60 59 54 55 54 47 51 72 109 141 143 148 157 171 180 188 203 197 204 208 211 208 211 216 229 227 223 211 183
321 323 324 327 336 340 343 356 358 1 4 9 12 15 12 26 29 34 51 65 62 55 54 54 56 51 44 49 86 152 169 160 167 170 165 171 177 186 195 200 205 209 210 226 227 215 196 183 173
315 317 318 319 322 329 333 337 348 351 354 1 3 11 12 15 33 30 52 61 57 45 41 50 52 52 47 42 54 138 157 175 186 185 189 182 177 170 180 188 195 204 209 213 202 198 182 177 184
300 302 305 306 311 316 322 326 329 338 345 346 352 4 10 13 22 35 32 43 40 45 37 43 51 55 49 46 54 80 143 136 154 177 190 197 199 193 189 191 198 204 201 193 191 177 180 178 200
292 291 293 296 299 304 308 313 318 324 331 335 342 348 1 11 8 20 29 37 45 38 35 33 44 51 55 51 53 68 112 118 130 141 168 182 189 193 191 190 189 188 187 181 177 180 186 192 177
284 281 283 286 290 291 295 298 302 311 317 320 329 338 353 360 6 3 17 33 46 37 18 13 23 42 50 56 55 61 80 98 116 137 142 156 171 178 181 180 181 177 169 174 179 184 180 181 187
282 282 278 279 281 281 283 286 291 297 298 305 315 323 337 348 355 353 5 16 38 43 41 44 40 36 47 55 65 62 69 86 109 138 147 153 159 168 178 182 179 176 175 170 179 180 181 192 198
283 282 277 273 272 276 277 278 280 285 286 293 301 309 321 339 341 344 350 7 20 41 54 50 52 46 44 48 58 66 67 79 96 128 153 154 160 162 160 168 177 183 179 179 175 184 188 198 203
286 280 279 273 270 269 269 270 273 274 279 283 289 297 305 320 327 327 334 343 14 22 43 56 58 61 70 64 50 58 73 82 86 121 157 170 168 170 167 173 184 190 194 194 191 187 196 201 196
287 285 276 273 267 267 265 264 264 265 269 275 281 285 292 301 310 314 317 312 333 13 22 41 58 61 61 72 66 75 70 80 90 109 134 152 174 188 191 189 196 203 199 199 207 210 207 207 210
292 288 280 274 274 271 271 265 264 264 263 263 266 271 279 286 289 293 302 292 283 289 356 7 25 36 42 42 54 44 34 119 108 132 145 143 148 163 187 199 202 205 210 210 207 211 206 213 219
300 297 293 289 285 277 267 261 259 257 257 255 257 258 264 271 280 277 285 281 274 268 272 279 357 2 15 23 16 24 14 339 267 183 174 169 170 185 203 209 206 203 211 211 209 211 214 215 224
302 300 298 291 286 280 274 258 256 256 249 249 248 250 253 257 266 271 267 274 268 266 261 251 253 290 340 3 14 16 7 345 308 243 213 198 196 190 202 217 216 213 209 213 210 211 214 212 220
300 298 294 293 287 281 271 263 253 253 251 245 245 245 244 246 251 264 265 265 267 259 264 255 248 253 272 311 332 344 351 329 317 265 233 217 207 209 221 223 215 215 216 217 219 221 221 218 222
302 298 297 293 286 278 271 263 254 244 250 244 242 243 242 241 240 250 259 256 265 267 261 262 256 252 259 281 289 327 344 333 313 317 267 232 226 217 220 225 219 219 220 222 222 224 230 229 228
302 299 296 294 287 280 267 256 252 241 242 244 239 241 241 239 237 238 244 254 254 255 261 260 261 258 257 268 277 296 334 321 295 301 249 224 232 225 222 223 222 221 223 222 225 225 229 235 236
302 299 299 294 285 279 267 249 247 244 235 238 239 235 239 238 237 236 237 244 248 246 251 261 262 261 255 260 267 286 294 291 278 288 281 254 242 240 230 221 227 223 229 234 231 229 227 231 234
304 305 300 292 285 276 266 247 237 235 235 230 233 233 233 235 236 233 232 238 243 247 250 252 242 254 253 253 260 269 286 291 278 293 279 282 274 255 245 236 227 234 223 230 241 240 234 245 239
307 306 299 290 282 274 262 248 230 231 229 227 228 231 231 231 233 233 234 233 237 242 243 244 249 248 250 253 257 268 281 291 286 283 272 280 281 278 256 246 241 241 241 234 240 248 246 237 239
312 310 303 292 280 269 257 241 225 224 225 227 227 230 231 232 231 232 234 234 235 237 241 249 252 250 250 252 256 264 278 290 290 284 284 262 267 262 261 251 243 241 241 236 238 250 252 246 244
317 315 309 295 278 262 251 236 224 217 221 223 225 225 228 232 234 233 232 234 235 236 238 246 254 256 254 254 255 262 274 287 293 283 257 256 269 262 258 253 247 244 241 237 241 243 247 251 249
322 320 314 302 276 253 240 232 216 214 218 217 220 221 223 225 230 229 230 233 232 235 239 243 251 254 253 254 259 262 273 278 280 286 238 243 225 231 246 264 259 257 258 239 240 243 246 248 248
324 321 318 308 278 248 238 225 217 217 215 215 213 215 218 220 229 230 230 233 233 234 237 241 247 253 250 254 259 264 270 270 267 272 248 237 254 266 281 275 294 277 252 248 239 242 246 246 244
324 320 317 309 275 250 243 223 217 216 212 212 212 213 215 218 224 227 229 233 234 235 239 241 245 252 248 254 258 265 269 270 268 267 256 264 300 314 300 291 275 283 263 244 244 241 243 244 241
322 317 314 304 269 249 230 218 209 213 211 209 210 214 214 218 225 223 226 231 235 235 236 242 246 252 249 256 265 263 266 272 274 263 249 237 293 324 321 316 301 280 257 246 238 241 237 241 244
Height
11005 11002 10999 10994 10989 10984 10976 10972 10968 10965 10962 10954 10948 10941 10935 10928 10921 10917 10914 10912 10908 10906 10906 10908 10909 10908 10907 10908 10911 10914 10919 10924 10926 10931 10936 10940 10945 10951 10956 10961 10964 10966 10968 10971 10973 10975 10976 10979 10979
11003 11001 10999 10996 10992 10985 10980 10976 10971 10967 10963 10959 10952 10945 10939 10933 10926 10919 10917 10914 10911 10909 10909 10908 10907 10904 10901 10901 10904 10907 10913 10919 10923 10928 10932 10936 10942 10948 10952 10956 10961 10963 10965 10968 10970 10973 10974 10976 10977
11002 11000 10999 10995 10992 10987 10984 10978 10973 10969 10965 10961 10957 10950 10943 10938 10933 10926 10921 10918 10915 10911 10909 10908 10906 10903 10900 10898 10898 10901 10907 10913 10918 10923 10929 10936 10940 10944 10949 10953 10958 10959 10963 10965 10968 10970 10972 10973 10974
11000 10999 10998 10996 10991 10988 10986 10981 10977 10973 10968 10964 10960 10956 10949 10944 10939 10932 10926 10923 10920 10916 10913 10910 10907 10904 10903 10902 10900 10901 10903 10909 10915 10919 10925 10931 10936 10941 10946 10951 10955 10957 10960 10963 10966 10967 10969 10971 10972
10999 10997 10996 10996 10992 10989 10986 10983 10979 10975 10971 10967 10963 10960 10956 10949 10944 10937 10932 10928 10924 10921 10918 10915 10911 10907 10905 10905 10905 10905 10906 10909 10914 10918 10923 10929 10934 10938 10944 10948 10952 10956 10959 10961 10964 10965 10967 10968 10970
10997 10994 10993 10993 10992 10988 10986 10983 10980 10977 10972 10969 10965 10961 10959 10954 10948 10942 10937 10933 10929 10926 10923 10919 10915 10911 10908 10906 10906 10908 10910 10912 10915 10919 10923 10928 10932 10936 10941 10945 10949 10953 10955 10958 10960 10962 10964 10966 10969
10993 10990 10989 10988 10989 10987 10983 10983 10980 10977 10974 10970 10967 10963 10961 10957 10952 10946 10942 10937 10934 10930 10926 10923 10919 10915 10911 10908 10907 10908 10911 10914 10917 10920 10923 10927 10930 10934 10939 10943 10947 10950 10953 10956 10958 10960 10963 10965 10970
10988 10986 10984 10982 10983 10984 10981 10979 10979 10976 10973 10971 10968 10966 10962 10959 10955 10951 10946 10942 10938 10934 10931 10927 10923 10919 10915 10910 10907 10907 10910 10915 10918 10921 10925 10928 10932 10935 10938 10942 10945 10948 10951 10954 10956 10959 10962 10966 10970
10983 10980 10979 10976 10978 10979 10979 10977 10975 10973 10971 10970 10968 10966 10963 10960 10957 10953 10949 10944 10940 10938 10935 10931 10927 10923 10920 10915 10912 10911 10912 10916 10919 10921 10925 10929 10932 10935 10937 10940 10943 10947 10949 10952 10955 10959 10963 10966 10968
10977 10973 10972 10970 10971 10973 10975 10973 10972 10970 10969 10967 10966 10965 10963 10960 10958 10955 10951 10947 10942 10939 10937 10934 10933 10929 10926 10922 10918 10917 10918 10919 10920 10922 10926 10929 10932 10936 10938 10940 10943 10945 10949 10952 10955 10959 10963 10966 10968
10967 10967 10963 10963 10963 10966 10967 10968 10968 10969 10966 10964 10963 10963 10962 10960 10958 10955 10953 10949 10944 10941 10938 10936 10935 10934 10932 10928 10925 10922 10921 10923 10923 10925 10927 10930 10932 10936 10938 10941 10943 10946 10950 10953 10956 10959 10963 10966 10969
10955 10955 10957 10957 10953 10956 10958 10961 10961 10965 10963 10961 10960 10960 10960 10959 10957 10955 10954 10950 10947 10942 10939 10937 10936 10935 10935 10933 10929 10928 10927 10926 10927 10929 10931 10932 10934 10936 10938 10941 10944 10947 10951 10953 10958 10961 10963 10966 10969
10944 10942 10946 10946 10948 10945 10949 10951 10954 10958 10957 10957 10956 10956 10957 10957 10956 10954 10952 10952 10949 10945 10940 10938 10936 10935 10935 10935 10934 10932 10930 10930 10931 10932 10933 10935 10937 10938 10940 10942 10945 10949 10953 10955 10957 10961 10964 10966 10969
10933 10931 10931 10934 10937 10937 10939 10942 10945 10949 10951 10952 10952 10952 10952 10953 10953 10953 10951 10951 10950 10947 10943 10940 10938 10936 10935 10934 10935 10934 10933 10933 10933 10934 10934 10936 10938 10940 10943 10945 10948 10950 10953 10956 10959 10961 10964 10966 10968
10923 10922 10920 10920 10922 10926 10930 10934 10934 10941 10943 10945 10947 10947 10947 10948 10950 10950 10949 10949 10948 10947 10944 10942 10939 10937 10936 10935 10934 10934 10934 10934 10935 10935 10935 10936 10938 10940 10942 10944 10947 10950 10952 10956 10959 10961 10964 10965 10967
10914 10913 10910 10908 10913 10916 10920 10926 10922 10933 10935 10937 10939 10941 10942 10942 10945 10946 10946 10945 10945 10946 10945 10943 10940 10939 10937 10936 10935 10935 10935 10934 10934 10935 10936 10937 10938 10940 10940 10942 10945 10947 10950 10953 10957 10960 10962 10965 10966
10906 10904 10902 10900 10904 10905 10910 10913 10913 10920 10924 10927 10930 10932 10935 10936 10937 10942 10942 10942 10941 10941 10942 10942 10941 10939 10938 10936 10935 10934 10933 10933 10933 10933 10934 10936 10937 10939 10939 10941 10944 10946 10947 10949 10952 10957 10959 10962 10965
10896 10894 10890 10892 10889 10895 10895 10901 10903 10903 10911 10915 10919 10922 10925 10929 10930 10933 10936 10936 10937 10937 10938 10939 10939 10939 10938 10936 10934 10933 10932 10931 10931 10932 10932 10932 10935 10937 10938 10939 10940 10944 10946 10948 10950 10952 10955 10958 10961
10884 10882 10880 10880 10881 10880 10884 10888 10893 10893 10897 10903 10906 10911 10914 10918 10923 10924 10928 10930 10931 10932 10933 10934 10935 10935 10935 10935 10933 10931 10930 10929 10928 10928 10928 10930 10931 10933 10935 10937 10938 10940 10943 10945 10948 10950 10952 10954 10955
10870 10864 10863 10862 10865 10861 10866 10875 10878 10883 10880 10889 10895 10897 10903 10909 10912 10915 10919 10923 10925 10926 10927 10928 10929 10930 10931 10931 10931 10930 10928 10926 10925 10925 10924 10926 10927 10928 10929 10932 10935 10938 10939 10941 10943 10945 10947 10950 10951
10854 10846 10841 10841 10837 10840 10847 10858 10862 10866 10870 10875 10883 10884 10889 10896 10901 10906 10911 10914 10917 10919 10920 10922 10923 10925 10926 10926 10926 10926 10926 10924 10922 10922 10921 10921 10922 10924 10925 10928 10930 10934 10936 10937 10938 10940 10941 10944 10946
10839 10825 10822 10815 10811 10815 10817 10840 10841 10852 10856 10862 10869 10874 10875 10882 10890 10896 10901 10906 10909 10912 10913 10915 10917 10919 10920 10920 10920 10921 10920 10920 10919 10918 10919 10919 10919 10920 10920 10922 10926 10928 10930 10932 10934 10934 10936 10937 10938
10822 10809 10798 10791 10786 10790 10797 10813 10824 10831 10839 10847 10853 10858 10862 10867 10875 10883 10890 10896 10902 10903 10905 10906 10908 10911 10913 10914 10914 10915 10915 10914 10915 10914 10914 10914 10915 10916 10916 10917 10920 10923 10922 10925 10928 10930 10931 10932 10932
10805 10794 10778 10769 10766 10766 10775 10787 10803 10808 10822 10832 10837 10843 10848 10853 10862 10872 10879 10886 10891 10894 10897 10898 10901 10903 10905 10907 10907 10907 10908 10907 10908 10910 10908 10908 10908 10908 10911 10914 10916 10919 10922 10921 10923 10925 10927 10927 10927
10785 10771 10759 10749 10745 10748 10754 10765 10784 10791 10805 10813 10823 10828 10837 10844 10850 10859 10867 10874 10879 10884 10888 10889 10891 10894 10897 10899 10899 10900 10900 10900 10899 10903 10903 10901 10901 10903 10904 10906 10908 10911 10915 10917 10917 10919 10921 10922 10923
10765 10752 10742 10732 10729 10732 10734 10752 10767 10771 10781 10796 10805 10818 10827 10833 10841 10849 10855 10861 10867 10873 10877 10881 10883 10885 10888 10890 10890 10891 10894 10893 10892 10895 10893 10894 10895 10897 10898 10900 10899 10902 10904 10908 10909 10911 10913 10915 10916
10746 10735 10727 10720 10717 10717 10723 10737 10743 10755 10764 10778 10795 10805 10813 10822 10826 10832 10840 10847 10854 10862 10867 10871 10874 10876 10878 10880 10881 10883 10886 10886 10886 10886 10886 10886 10885 10887 10889 10891 10891 10893 10895 10898 10901 10902 10905 10908 10910
10730 10720 10714 10709 10707 10710 10712 10723 10733 10740 10751 10766 10777 10789 10800 10809 10813 10822 10829 10835 10843 10851 10858 10862 10864 10866 10869 10870 10873 10874 10877 10879 10880 10879 10879 10881 10881 10880 10880 10882 10884 10882 10883 10886 10890 10893 10896 10899 10901
10718 10711 10703 10699 10697 10697 10703 10714 10721 10727 10740 10751 10762 10776 10787 10795 10800 10810 10819 10827 10834 10841 10849 10854 10856 10859 10862 10864 10864 10868 10869 10871 10872 10871 10872 10873 10876 10875 10873 10871 10871 10871 10869 10872 10877 10881 10884 10888 10891
10706 10698 10691 10689 10687 10687 10694 10698 10703 10714 10725 10738 10752 10764 10776 10784 10788 10800 10809 10816 10823 10830 10838 10843 10846 10850 10854 10858 10859 10860 10861 10862 10865 10864 10864 10865 10866 10864 10863 10860 10858 10857 10855 10857 10862 10867 10872 10876 10879